Regional Weather Roundup
Issued by NWS Upton, NY

Current Version | Previous Version | Text Only | Print | Product List | Glossary On
Versions: 1 2 3 4 5 6 7 8 9 10 11 12 13 14 15 16 17 18 19 20 21 22 23 24 25 26 27 28 29 30 31 32 33 34 35 36 37 38 39 40 41 42 43 44 45 46 47 48 49 50
000 ASUS41 KOKX 021608 RWROKX REGIONAL WEATHER ROUNDUP NATIONAL WEATHER SERVICE NEW YORK NY 1200 PM EDT THU JUL 02 2015 NOTE: "FAIR" INDICATES FEW OR NO CLOUDS BELOW 12,000 FEET WITH NO SIGNIFICANT WEATHER AND/OR OBSTRUCTIONS TO VISIBILITY. NYZ071-072-176-178-NJZ106-104-021700- NEW YORK CITY METRO AREA CITY SKY/WX TMP DP RH WIND PRES REMARKS CENTRAL PARK MOSUNNY 76 60 57 CALM 29.93F LAGUARDIA APRT PTSUNNY 76 56 49 E5 29.90F KENNEDY INTL CLOUDY 80 54 40 VRB5 29.91F NEWARK/LIBERTY PTSUNNY 79 58 48 E8 29.90F BRNX BOT. GARD N/A 77 57 50 NW2 29.90F TETERBORO MOSUNNY 80 57 45 N5 29.89F $$ NYZ177-179-078>081-021700- LONG ISLAND NEW YORK CITY SKY/WX TMP DP RH WIND PRES REMARKS FARMINGDALE PTSUNNY 77 60 55 VRB3 29.91F ISLIP CLOUDY 78 60 53 CALM 29.89F SHIRLEY PTSUNNY 78 61 55 CALM 29.92S WESTHAMPTON MOSUNNY 77 63 61 VRB6 29.93S MONTAUK POINT N/A 75 57 53 NW5 29.93S $$ NYZ052-065-067-021700- HUDSON VALLEY CITY SKY/WX TMP DP RH WIND PRES REMARKS WHITE PLAINS MOSUNNY 77 57 50 CALM 29.91F NEWBURGH MOSUNNY 73 59 60 CALM 29.94S MONTGOMERY PTSUNNY 74 59 59 S5 29.92F POUGHKEEPSIE MOSUNNY 76 58 53 N3 29.91F ALBANY MOSUNNY 72 55 55 NW9 29.92F $$ NJZ001-105-106-008-010-013-015-019>022-104-021700- NEW JERSEY CITY SKY/WX TMP DP RH WIND PRES REMARKS NEWARK/LIBERTY PTSUNNY 79 58 48 E8 29.90F TETERBORO MOSUNNY 80 57 45 N5 29.89F CALDWELL MOSUNNY 77 57 50 CALM 29.90F MORRISTOWN MOSUNNY 81 61 50 NE3 29.91F SOMERVILLE PTSUNNY 77 62 59 VRB3 29.89F SUSSEX MOSUNNY 75 58 55 CALM 29.92F ANDOVER N/A 76 61 59 VRB3 29.93F TRENTON PTSUNNY 73 61 65 E5 29.91S MILLVILLE HVY RAIN 69 66 90 CALM 29.91S VSB 1/2 ATLANTIC CITY CLOUDY 70 66 87 NE7 29.90F FOG WRIGHTSTOWN CLOUDY 70 64 83 N7 29.89F TOMS RIVER CLOUDY 72 64 78 CALM 29.91F BELMAR CLOUDY 72 61 68 N3 29.91F $$ PAZ047>061-062-071-021700- EASTERN PENNSYLVANIA CITY SKY/WX TMP DP RH WIND PRES REMARKS PHILADELPHIA CLOUDY 73 62 68 NE8 29.91S ALLENTOWN MOSUNNY 77 60 55 N5 29.91F SCRANTON MOSUNNY 74 57 55 NW6 29.94F $$ CTZ002-004>006-009-010-012-RIZ004-006-007-MAZ004-011-015-021700- SOUTHERN NEW ENGLAND IN CT CITY SKY/WX TMP DP RH WIND PRES REMARKS BRADLEY INTL PTSUNNY 76 55 48 VRB5 29.91S HARTFORD MOSUNNY 76 55 48 W12 29.91S DANBURY MOSUNNY 74 56 53 VRB3 29.93F WTRBRY/OXFORD MOSUNNY 73 57 56 NW7 29.96R BRIDGEPORT MOSUNNY 74 60 61 S12 29.91F MERIDEN MOSUNNY 77 58 51 SW3 29.91F NEW HAVEN MOSUNNY 74 62 66 S9 29.91F CHESTER FAIR 73 59 60 NE3 29.93S GROTON MOSUNNY 72 60 66 S8 29.91S WILLIMANTIC MOSUNNY 76 58 53 N6 29.92S IN RI CITY SKY/WX TMP DP RH WIND PRES REMARKS PROVIDENCE PTSUNNY 78 57 48 SW10 29.91S BLOCK ISLAND MOSUNNY 73 61 64 CALM 29.92F WESTERLY MOSUNNY 76 61 59 S8 29.92S IN MA CITY SKY/WX TMP DP RH WIND PRES REMARKS BOSTON MOSUNNY 77 55 46 VRB6G16 29.89S WORCESTER PTSUNNY 72 55 55 W9 29.93S WESTFIELD MOSUNNY 74 55 51 VRB6 29.92S PROVINCETOWN SUNNY 81 19 10 S9 29.90S NANTUCKET CLOUDY 74 61 63 SW8 29.92S $$ ANZ330-335-338-340-345-350-353-355-021700- COASTAL MARINE OBSERVATIONS STATION/POSITION TIME SKY/WX TEMP WIND PRES VSBY WAVE AIR SEA DIR/SP/G HT/PER (UTC) (F) (DEG/KT/KT) (MB) (MI) (FT/S) NY HARB ENTRANCE 1550 71 70 60/ 2/ 2 1012.6 3/ 7 4S FIRE IS 1503 70 N/A 4/ 8 20S FIRE ISLAND 1550 69 68 20/ 4/ 4 1012.4 4/ 7 GREAT SOUTH BAY 1500 75 75 230/ 2/ 2 N/A 23SW MTP 1550 69 69 20/ 4/ 4 1012.7 4/ 7 HUDSON CANYON NOT AVBL KINGS POINT 1500 76 66 30/ 3/ 4 1012.5 CENTRAL LI SOUND NOT AVBL EASTERN LI SOUND 1500 68 65 170/ 2/ 4 N/A ROBBINS REEF 1500 73 80/ 3/ 3 1011.9 $$ >>>>>>>>>>>>>>>>>>>>>>>>>>>> KEY <<<<<<<<<<<<<<<<<<<<<<<<<<< > < > SKY/WX - SKY CONDITION/PRESENT WEATHER < > TMP - TEMPERATURE IN FAHRENHEIT < > DP - DEWPOINT IN FAHRENHEIT < > RH - RELATIVE HUMIDITY IN PERCENT < > WIND - DIRECTION AND SPEED IN MPH < > PRES - MEAN SEA LEVEL PRESSURE IN INCHES OF HG < > WCI - WIND CHILL INDEX < > VSB - VISIBILITY IN MILES < > HX - HEAT INDEX < > TC - TEMPERATURE IN CELSIUS < > VRB - VARIABLE WIND DIRECTION < > < >>>>>>>>>>>>>>>>>>>>>>>>>>>> KEY <<<<<<<<<<<<<<<<<<<<<<<<<<<

USA.gov is the U.S. government's official web portal to all federal, state and local government web resources and services.